Regional Weather Roundup
Issued by NWS Jackson, KY

Home | Current Version | Previous Version | Text Only | Print | Product List | Glossary Off
Versions: 1 2 3 4 5 6 7 8 9 10 11 12 13 14 15 16 17 18 19 20 21 22 23 24 25 26 27 28

000
ASUS43 KJKL 231910
RWRJKL

EAST KENTUCKY HOURLY WEATHER ROUNDUP
NATIONAL WEATHER SERVICE JACKSON KY
300 PM EDT SAT SEP 23 2017

NOTE: "FAIR" INDICATES FEW OR NO CLOUDS BELOW 12,000 FEET WITH
NO SIGNIFICANT WEATHER AND/OR OBSTRUCTIONS TO VISIBILITY.

* THESE REPORTS ARE NOT UNDER NWS QUALITY CONTROL AND MAY NOT
  REPORT WEATHER SUCH AS PRECIPITATION AND FOG.

KYZ079-080-083-085-087-088-110-112-115-119-120-232000
...EASTERN KENTUCKY...

CITY           SKY/WX    TMP DP  RH WIND       PRES   REMARKS
JACKSON        SUNNY     84  62  47 CALM      30.11F
LONDON         SUNNY     86  62  44 NE7       30.09F
SOMERSET*      SUNNY     86  61  42 E3        30.09F
MONTICELLO*    SUNNY     86  67  52 VRB5G17   30.09F
WILLIAMSBURG*  PTCLDY    84  66  54 NE3       30.08F
MIDDLESBORO*   MOSUNNY   87  67  50 N9        30.08F HX  90
HARLAN APT*    CLEAR     86  59  39 W6        30.10F
PIKE CO APT*     N/A     82  65  55 N7        30.11F
BIG SANDY APT* CLEAR     84  67  55 N5        30.11S
MOREHEAD APT*  CLEAR     86  61  42 VRB6G12   30.12F
$$

KYZ035-036-041-042-044-050-067-078-099-232000
...CENTRAL KENTUCKY...

CITY           SKY/WX    TMP DP  RH WIND       PRES   REMARKS
MT STERLING*   SUNNY     86  63  45 E6        30.12F
FLEMING/MASON* SUNNY     86  65  48 E6        30.11F
DANVILLE*      SUNNY     84  64  51 E7        30.10F
LEXINGTON      SUNNY     87  63  44 NE8       30.10F
FRANKFORT      SUNNY     89  60  37 NE5       30.08F
LOUISVILLE     MOSUNNY   89  64  43 SE10      30.06F HX  90
LEBANON*         N/A     86  64  48 E3        30.08F
GLASGOW*       MOSUNNY   88  65  45 N5        30.06F HX  90
BOWLING GREEN  MOSUNNY   89  69  51 N6        30.05F HX  93
$$

KYZ091>093-OHZ055-061-077-WVZ005-015-034-035-042-232000
...SOUTHERN OHIO/WEST VIRGINIA...

CITY           SKY/WX    TMP DP  RH WIND       PRES   REMARKS
COVINGTON      MOSUNNY   89  63  41 E7        30.10F HX  90
COLUMBUS       MOSUNNY   90  58  33 E8        30.10F
DAYTON         MOSUNNY   89  59  36 VRB5      30.12F
WILMINGTON     SUNNY     88  64  44 CALM      30.10F
HUNTINGTON     SUNNY     88  58  36 VRB6      30.08F
CHARLESTON     MOSUNNY   88  57  34 CALM      30.08F
PINEVILLE*     SUNNY     87  52  30 MISG      30.15F
BECKLEY        SUNNY     82  53  36 N8        30.15F
BLUEFIELD      SUNNY     80  46  30 VRB7      30.17F
LOGAN CO APT*    N/A     84  61  45 N6G12     30.11F
$$

VAZ002-007-008-TNZ017-027-036-066-071-232000
...SOUTHWEST VIRGINIA/EAST TENNESSEE...

CITY           SKY/WX    TMP DP  RH WIND       PRES   REMARKS
WISE*          MOSUNNY   82  55  39 N10       30.17F
JONESVILLE*      N/A     86  64  48 NW3       30.10F
ABINGDON*      MOSUNNY   86  56  35 NE3       30.11F
BRISTOL        MOSUNNY   87  60  40 CALM      30.07F
MORRISTOWN*    MOCLDY    88  64  45 VRB3      30.06F
SEVIERVILLE*   PTCLDY    86  61  42 CALM      30.05F
KNOXVILLE      MOSUNNY   86  64  47 N8        30.05F
LAFOLLETTE*    MOCLDY    84  64  51 VRB6      30.10F
OAK RIDGE      SUNNY     87  65  47 VRB6      30.07F
CROSSVILLE     MOSUNNY   84  63  49 NE6       30.11F
NASHVILLE      PTSUNNY   91  65  41 VRB3      30.04F HX  93
$$

...KEY TO REMARKS...
VSB - VISIBILITY IN MILES
WCI - WIND CHILL INDEX
HX  - HEAT INDEX

$$




USA.gov is the U.S. government's official web portal to all federal, state and local government web resources and services.